[[{"header":{"parameterUnit":"m.s-1","parameterCategory":1,"la1":30.2991,"la2":30.254,"lo1":-89.0895,"lo2":-89.0444,"dy":0.0017,"dx":0.0017,"nx":28,"ny":28,"refTime":"2023-09-09T09:00:00:Z","depth":0,"parameterNumber":2,"parameterNumberName":"U-component_of_WINDS"},"data":[0,0,0,0,0,0,0,0,0,0,0,0,0,0,0,0,0,0,0,0,0,0,0,0,0,0,0,0,0,0,0,0,0,0,0,0,0,0,0,0,0,0,0,0,0,0,0,0,0,0,0,0,0,0,0,0,0,0,-0.1065,-0.1066,0,-0.1095,-0.1095,-0.1096,-0.106,-0.1059,-0.1058,-0.1056,-0.109,-0.1092,-0.1094,0,0,0,0,0,0,0,0,0,0,0,0,0,-0.0979,-0.0981,-0.1065,-0.1066,-0.1066,-0.1095,-0.1095,-0.1096,-0.106,-0.1059,-0.1057,-0.1056,-0.1089,-0.1091,-0.1094,0,0,0,0,0,0,0,0,0,0,0,0,0,-0.1014,-0.0981,-0.1065,-0.1052,-0.1051,-0.1095,-0.1095,-0.1096,-0.1061,-0.1059,-0.1057,-0.1055,-0.1088,-0.1091,-0.1094,-0.1154,0,0,-0.1104,-0.1106,0,0,0,0,0,0,0,0,-0.1012,-0.1017,-0.1053,-0.1053,-0.1052,-0.1072,-0.1077,-0.1116,-0.1061,-0.1057,-0.1056,-0.1054,-0.1086,-0.1089,-0.1099,-0.1156,-0.1157,-0.1104,-0.1106,-0.1108,-0.1109,0,0,0,0,0,0,0,-0.1009,-0.1015,-0.1077,-0.1054,-0.1053,-0.1045,-0.1047,-0.1084,-0.1082,-0.1057,-0.1055,-0.1059,-0.1085,-0.1096,-0.1099,-0.1158,-0.1104,-0.1107,-0.1109,-0.111,-0.1263,-0.1265,0,0,0,0,0,0,-0.1008,-0.1013,-0.1076,-0.1078,-0.1026,-0.1048,-0.1051,-0.1067,-0.1082,-0.1082,-0.106,-0.1057,-0.1091,-0.1096,-0.11,-0.1171,-0.1108,-0.1111,-0.1113,-0.1261,-0.1264,-0.1266,0,0,0,0,0,0,-0.1006,-0.1014,-0.1075,-0.1045,-0.1052,-0.1051,-0.107,-0.1069,-0.108,-0.1084,-0.1084,-0.1072,-0.109,-0.1096,-0.114,-0.1172,-0.1112,-0.1115,-0.1259,-0.1262,-0.1265,-0.1313,0,0,0,0,0,0,-0.1004,-0.1014,-0.1036,-0.1046,-0.1054,-0.1114,-0.1072,-0.1071,-0.1085,-0.1081,-0.1095,-0.1095,-0.1089,-0.1136,-0.1144,-0.1175,-0.1118,-0.1256,-0.126,-0.1264,-0.1309,-0.1317,-0.1325,0,0,0,0,0,-0.1001,-0.1049,-0.1038,-0.1045,-0.1082,-0.1116,-0.1121,-0.1112,-0.1088,-0.1111,-0.1113,-0.1095,-0.1166,-0.1141,-0.1149,-0.1182,-0.1254,-0.1259,-0.1264,-0.1305,-0.1316,-0.1325,0,0,0,0,0,0,-0.1045,-0.105,-0.1038,-0.109,-0.1103,-0.111,-0.1139,-0.1124,-0.1144,-0.114,-0.1128,-0.1132,-0.1179,-0.1185,-0.1156,-0.124,-0.1206,-0.1213,-0.1235,-0.1245,-0.1253,-0.1251,-0.112,0,0,0,0,0,-0.1061,-0.1087,-0.1091,-0.1137,-0.1144,-0.114,-0.1155,-0.1146,-0.116,-0.1165,-0.1171,-0.1185,-0.121,-0.1228,-0.1251,-0.1308,-0.1311,-0.1335,-0.1343,-0.1349,-0.1356,-0.1386,-0.1397,-0.1282,-0.1282,-0.1282,0,0,-0.1094,-0.11,-0.1118,-0.1146,-0.1155,-0.1183,-0.1145,-0.1177,-0.1198,-0.117,-0.1213,-0.1217,-0.1232,-0.1283,-0.1305,-0.1289,-0.1388,-0.1356,-0.1361,-0.1364,-0.1392,-0.1403,-0.1413,-0.1285,-0.1285,-0.1284,0,0,-0.1169,-0.1176,-0.1215,-0.1224,-0.1237,-0.1234,-0.1243,-0.1252,-0.1254,-0.1295,-0.1275,-0.1299,-0.1344,-0.1355,-0.1367,-0.1443,-0.1427,-0.1451,-0.1494,-0.1524,-0.1533,-0.1541,-0.1569,-0.1579,-0.1457,-0.1457,-0.1457,0,-0.1209,-0.125,-0.1237,-0.127,-0.1283,-0.1257,-0.1296,-0.1306,-0.1327,-0.1336,-0.1317,-0.1371,-0.1379,-0.1432,-0.145,-0.146,-0.1471,-0.1451,-0.1532,-0.154,-0.1548,-0.1574,-0.1584,-0.146,-0.146,-0.146,-0.1459,0,-0.1299,-0.1327,-0.1357,-0.1377,-0.1392,-0.1429,-0.1421,-0.1439,-0.1428,-0.1427,-0.147,-0.1478,-0.1503,-0.1514,-0.1505,-0.1565,-0.1555,-0.1534,-0.1501,-0.1562,-0.1586,-0.1596,-0.1464,-0.1463,-0.1462,-0.1462,0,0,-0.1405,-0.1414,-0.1426,-0.1434,-0.1445,-0.1468,-0.1502,-0.1525,-0.154,-0.1555,-0.1584,-0.162,-0.1601,-0.1614,-0.1605,-0.1631,-0.1691,-0.1607,-0.1607,-0.1623,-0.1758,-0.1775,-0.1786,-0.1679,-0.1681,-0.1682,-0.1757,0,-0.1481,-0.154,-0.1528,-0.1586,-0.1612,-0.1586,-0.1616,-0.1627,-0.1626,-0.1648,-0.1647,-0.1674,-0.1646,-0.1653,-0.1677,-0.1678,-0.1718,-0.1673,-0.1707,-0.1708,-0.1706,-0.1799,-0.1817,-0.1887,-0.1766,-0.1768,-0.1769,0,-0.1578,-0.1594,-0.1654,-0.166,-0.1671,-0.1698,-0.1717,-0.1739,-0.175,-0.1747,-0.176,-0.1746,-0.178,-0.1744,-0.1792,-0.1761,-0.1774,-0.1776,-0.1779,-0.1783,-0.1744,-0.1807,-0.1909,-0.1921,-0.1784,-0.1783,-0.1782,0,-0.165,-0.1687,-0.1728,-0.1735,-0.1743,-0.1763,-0.1767,-0.1775,-0.1789,-0.1806,-0.1815,-0.1836,-0.1848,-0.1864,-0.1855,-0.183,-0.1904,-0.1868,-0.1904,-0.1904,-0.1922,-0.1922,-0.203,-0.1928,-0.1928,-0.1928,-0.1928,0,-0.1737,-0.1775,-0.176,-0.1786,-0.1827,-0.1813,-0.1854,-0.1856,-0.1863,-0.1888,-0.1867,-0.1891,-0.1878,-0.1901,-0.1894,-0.1934,-0.194,-0.1939,-0.1937,-0.1942,-0.1942,-0.1952,-0.1947,-0.1931,-0.193,-0.193,-0.1929,0,-0.1826,-0.1818,-0.186,-0.1863,-0.1865,-0.1895,-0.1898,-0.1921,-0.1918,-0.195,-0.1956,-0.1951,-0.1977,-0.1969,-0.1998,-0.1993,-0.2044,-0.2035,-0.2041,-0.2039,-0.2076,-0.2073,-0.2195,-0.221,-0.2098,-0.2099,-0.21,0,-0.1883,-0.1911,-0.1916,-0.1931,-0.1936,-0.1961,-0.1974,-0.196,-0.1975,-0.1988,-0.201,-0.2033,-0.2052,-0.2094,-0.2093,-0.2115,-0.2107,-0.2148,-0.211,-0.2114,-0.2109,-0.2108,-0.2111,-0.2156,-0.2158,-0.2159,-0.216,0,-0.1985,-0.1978,-0.1998,-0.2016,-0.2033,-0.2047,-0.2059,-0.2072,-0.2058,-0.2076,-0.2102,-0.2116,-0.2143,-0.2167,-0.2186,-0.219,-0.2173,-0.2171,-0.2181,-0.2187,-0.2189,-0.2189,-0.2063,-0.2169,-0.2168,-0.2167,-0.2167,-0.2166,-0.206,-0.2084,-0.2091,-0.2113,-0.212,-0.2131,-0.2153,-0.2151,-0.2172,-0.2193,-0.2183,-0.2212,-0.2221,-0.2244,-0.2251,-0.2274,-0.2258,-0.2272,-0.2276,-0.228,-0.2285,-0.2183,-0.2277,-0.2277,-0.2276,-0.2276,-0.2276,0,-0.2162,-0.2164,-0.2185,-0.2201,-0.2219,-0.2198,-0.221,-0.2226,-0.2252,-0.2261,-0.2279,-0.2307,-0.233,-0.2329,-0.235,-0.2368,-0.2361,-0.2374,-0.2374,-0.2375,-0.2297,-0.2287,-0.238,-0.238,-0.238,-0.238,-0.238,-0.238,-0.2217,-0.2256,-0.225,-0.2292,-0.2294,-0.2322,-0.233,-0.234,-0.2347,-0.238,-0.2398,-0.2397,-0.2402,-0.2422,-0.2442,-0.2441,-0.245,-0.2467,-0.2463,-0.2391,-0.2381,-0.2371,-0.2362,-0.2469,-0.2469,-0.254,-0.254,-0.2541]},{"header":{"parameterUnit":"m.s-1","parameterCategory":1,"la1":30.2991,"la2":30.254,"lo1":-89.0895,"lo2":-89.0444,"dy":0.0017,"dx":0.0017,"nx":28,"ny":28,"refTime":"2023-09-09T09:00:00:Z","depth":0,"parameterNumber":3,"parameterNumberName":"V-component_of_WINDS"},"data":[0,0,0,0,0,0,0,0,0,0,0,0,0,0,0,0,0,0,0,0,0,0,0,0,0,0,0,0,0,0,0,0,0,0,0,0,0,0,0,0,0,0,0,0,0,0,0,0,0,0,0,0,0,0,0,0,0,0,-4.1352,-4.1353,0,-4.144,-4.1441,-4.1442,-4.1396,-4.1393,-4.1391,-4.1389,-4.1474,-4.1479,-4.1483,0,0,0,0,0,0,0,0,0,0,0,0,0,-4.1138,-4.1142,-4.1352,-4.1353,-4.1354,-4.144,-4.1442,-4.1443,-4.1396,-4.1393,-4.139,-4.1388,-4.1473,-4.1478,-4.1484,0,0,0,0,0,0,0,0,0,0,0,0,0,-4.1229,-4.1144,-4.1352,-4.1342,-4.1341,-4.144,-4.1442,-4.1443,-4.1397,-4.1393,-4.139,-4.1386,-4.1471,-4.1478,-4.1484,-4.1597,0,0,-4.1505,-4.1508,0,0,0,0,0,0,0,0,-4.1224,-4.1237,-4.1342,-4.1342,-4.1343,-4.1404,-4.1397,-4.1494,-4.1398,-4.1376,-4.1389,-4.1385,-4.1453,-4.1461,-4.1486,-4.1601,-4.1604,-4.1506,-4.151,-4.1512,-4.1514,0,0,0,0,0,0,0,-4.1218,-4.1233,-4.1387,-4.1343,-4.1344,-4.1331,-4.134,-4.1416,-4.1433,-4.1377,-4.1374,-4.1385,-4.1453,-4.1479,-4.1487,-4.1606,-4.1505,-4.1511,-4.1515,-4.1518,-4.1816,-4.182,0,0,0,0,0,0,-4.1213,-4.1228,-4.1384,-4.139,-4.1274,-4.1338,-4.1348,-4.1387,-4.1432,-4.1436,-4.1388,-4.1383,-4.1469,-4.1479,-4.149,-4.1624,-4.1512,-4.1519,-4.1523,-4.1812,-4.1817,-4.1821,0,0,0,0,0,0,-4.1208,-4.1227,-4.138,-4.1308,-4.1327,-4.1345,-4.139,-4.1391,-4.1417,-4.1441,-4.1443,-4.1412,-4.1467,-4.1481,-4.1571,-4.1626,-4.1522,-4.1528,-4.1808,-4.1814,-4.1819,-4.1893,0,0,0,0,0,0,-4.1202,-4.1226,-4.127,-4.1309,-4.1331,-4.1461,-4.1394,-4.1395,-4.143,-4.1423,-4.1464,-4.1467,-4.1465,-4.1561,-4.1577,-4.1634,-4.1533,-4.1803,-4.1811,-4.1817,-4.1886,-4.1901,-4.1913,0,0,0,0,0,-4.1195,-4.1286,-4.1272,-4.1291,-4.1386,-4.1465,-4.1477,-4.1474,-4.1434,-4.1478,-4.1493,-4.1466,-4.1618,-4.1571,-4.1589,-4.1648,-4.1799,-4.1808,-4.1817,-4.1879,-4.1898,-4.1913,0,0,0,0,0,0,-4.1251,-4.1291,-4.1276,-4.1384,-4.1421,-4.1457,-4.1512,-4.1494,-4.1542,-4.1534,-4.1527,-4.1537,-4.163,-4.1648,-4.1595,-4.1758,-4.1702,-4.1715,-4.1743,-4.1761,-4.1775,-4.1768,-4.1539,0,0,0,0,0,-4.1277,-4.1338,-4.1369,-4.1461,-4.1481,-4.1493,-4.1527,-4.1522,-4.156,-4.1575,-4.1597,-4.1634,-4.1689,-4.1726,-4.1779,-4.1888,-4.1895,-4.1938,-4.1951,-4.1963,-4.1974,-4.2031,-4.205,-4.185,-4.185,-4.185,0,0,-4.1329,-4.1358,-4.1397,-4.1473,-4.1502,-4.1564,-4.1507,-4.1576,-4.1621,-4.1585,-4.1672,-4.1689,-4.1729,-4.1829,-4.1874,-4.1847,-4.2031,-4.1974,-4.1983,-4.1987,-4.2042,-4.2061,-4.2078,-4.1856,-4.1855,-4.1854,0,0,-4.1456,-4.1485,-4.1564,-4.1594,-4.1639,-4.1646,-4.1665,-4.1704,-4.1714,-4.1802,-4.1775,-4.1829,-4.1926,-4.1955,-4.1983,-4.2121,-4.2098,-4.2138,-4.221,-4.2267,-4.2283,-4.2297,-4.2345,-4.2363,-4.2149,-4.2149,-4.215,0,-4.1514,-4.1609,-4.1606,-4.1678,-4.1711,-4.1683,-4.1762,-4.1791,-4.185,-4.1873,-4.1841,-4.1962,-4.1987,-4.2093,-4.2127,-4.2151,-4.2171,-4.2133,-4.2281,-4.2295,-4.2308,-4.2354,-4.2372,-4.2154,-4.2153,-4.2153,-4.2153,0,-4.1679,-4.1745,-4.1803,-4.1863,-4.1902,-4.1977,-4.1984,-4.2025,-4.2016,-4.2026,-4.2115,-4.2144,-4.2202,-4.2227,-4.2219,-4.2332,-4.2313,-4.2282,-4.2225,-4.2332,-4.2375,-4.2392,-4.2161,-4.2159,-4.2158,-4.2156,0,0,-4.1843,-4.1901,-4.1922,-4.1948,-4.1995,-4.2045,-4.2118,-4.2176,-4.2211,-4.2252,-4.2312,-4.2394,-4.2366,-4.2397,-4.2392,-4.2442,-4.2548,-4.2404,-4.2405,-4.2429,-4.2673,-4.2696,-4.2716,-4.2533,-4.2536,-4.2539,-4.2669,0,-4.1973,-4.2102,-4.2102,-4.222,-4.228,-4.2254,-4.2317,-4.2352,-4.2364,-4.2415,-4.2427,-4.2486,-4.2444,-4.2462,-4.2511,-4.2525,-4.2597,-4.2515,-4.2587,-4.2589,-4.2577,-4.2739,-4.2764,-4.2885,-4.2686,-4.2689,-4.2691,0,-4.2141,-4.219,-4.2315,-4.2353,-4.2378,-4.2435,-4.2488,-4.2538,-4.2576,-4.2581,-4.2617,-4.2603,-4.2675,-4.2617,-4.2716,-4.2661,-4.269,-4.2701,-4.2706,-4.2711,-4.2646,-4.2748,-4.2924,-4.2942,-4.2718,-4.2716,-4.2714,0,-4.2248,-4.2344,-4.2431,-4.2455,-4.2501,-4.2542,-4.2563,-4.2598,-4.2632,-4.2678,-4.27,-4.2753,-4.2782,-4.2822,-4.2823,-4.2781,-4.2923,-4.2865,-4.2927,-4.2927,-4.2957,-4.2955,-4.314,-4.2978,-4.2978,-4.2977,-4.2977,0,-4.2392,-4.2469,-4.248,-4.2533,-4.2619,-4.2617,-4.27,-4.2717,-4.2749,-4.2804,-4.2784,-4.2836,-4.2834,-4.2886,-4.2887,-4.2968,-4.2981,-4.2986,-4.2985,-4.2988,-4.2987,-4.3006,-4.2997,-4.2982,-4.2981,-4.298,-4.2979,0,-4.2525,-4.2535,-4.2629,-4.2665,-4.2676,-4.2738,-4.2768,-4.2818,-4.2828,-4.2898,-4.2914,-4.2929,-4.299,-4.2995,-4.3064,-4.3065,-4.3162,-4.3153,-4.315,-4.3148,-4.321,-4.3204,-4.3412,-4.3439,-4.326,-4.3262,-4.3264,0,-4.2616,-4.2675,-4.2719,-4.2755,-4.2779,-4.2837,-4.2873,-4.2873,-4.291,-4.2958,-4.3002,-4.3061,-4.3108,-4.3205,-4.3221,-4.3274,-4.3265,-4.3334,-4.3272,-4.3273,-4.3265,-4.3261,-4.3266,-4.3346,-4.3348,-4.3349,-4.3351,0,-4.2776,-4.2778,-4.2832,-4.2887,-4.293,-4.2973,-4.3013,-4.3044,-4.3048,-4.3091,-4.3154,-4.319,-4.3262,-4.3319,-4.3371,-4.3391,-4.3371,-4.337,-4.3387,-4.339,-4.3386,-4.3388,-4.3182,-4.3365,-4.3364,-4.3363,-4.3362,-4.3361,-4.289,-4.2942,-4.298,-4.304,-4.307,-4.3108,-4.3157,-4.3174,-4.3226,-4.3285,-4.3281,-4.335,-4.3386,-4.3453,-4.3477,-4.3529,-4.3506,-4.3531,-4.3537,-4.3543,-4.3549,-4.3378,-4.3539,-4.3538,-4.3538,-4.3538,-4.3537,0,-4.3049,-4.3073,-4.3128,-4.3185,-4.3232,-4.3211,-4.3254,-4.3294,-4.3355,-4.3391,-4.3438,-4.3509,-4.3565,-4.3585,-4.364,-4.3678,-4.367,-4.3692,-4.3688,-4.3693,-4.3567,-4.3547,-4.3697,-4.3697,-4.3697,-4.3697,-4.3697,-4.3697,-4.3137,-4.3222,-4.3229,-4.3328,-4.3351,-4.3419,-4.3445,-4.3479,-4.3508,-4.3589,-4.3636,-4.365,-4.3679,-4.3735,-4.3785,-4.3789,-4.381,-4.3836,-4.3836,-4.3718,-4.3702,-4.3687,-4.3667,-4.384,-4.384,-4.3957,-4.3958,-4.3959]}]]